FW0786 Weather Reports


time (UTC)temp
C
wind
direction
speed
KPH
gust
KPH
rain 1hr
cm
rain 24hr
cm
rain mn
cm
humidity
%
barometer
mb
20260506180246 7 323 3.2 4.8 0.00 0.38 0.20 94 1010.4
20260506175747 7 288 3.2 6.4 0.00 0.38 0.20 94 1010.5
20260506175247 7 336 3.2 8.0 0.00 0.38 0.20 94 1010.5
20260506174744 8 293 3.2 8.0 0.00 0.38 0.20 94 1010.4
20260506174245 8 344 3.2 8.0 0.00 0.38 0.20 94 1010.3
20260506173744 8 342 1.6 4.8 0.00 0.38 0.20 94 1010.3
20260506173246 8 337 1.6 4.8 0.00 0.38 0.20 94 1010.3
20260506172745 8 309 1.6 4.8 0.00 0.38 0.20 94 1010.3
20260506172245 8 315 1.6 4.8 0.00 0.38 0.20 94 1010.3
20260506171745 8 275 1.6 3.2 0.00 0.38 0.20 94 1010.3
20260506171244 8 275 1.6 6.4 0.00 0.38 0.20 94 1010.4
20260506170743 8 274 1.6 6.4 0.00 0.38 0.20 94 1010.4
20260506170242 8 308 3.2 6.4 0.00 0.38 0.20 94 1010.2
20260506165742 8 294 3.2 6.4 0.00 0.38 0.20 94 1010.3
20260506165242 8 333 3.2 6.4 0.00 0.38 0.20 94 1010.1
20260506164742 8 346 3.2 6.4 0.03 0.38 0.20 94 1010.5
20260506163742 8 283 3.2 6.4 0.03 0.38 0.20 94 1010.2
20260506163240 8 327 3.2 8.0 0.05 0.38 0.20 94 1010.3
20260506162740 8 330 3.2 8.0 0.05 0.38 0.20 94 1010.4
20260506162240 8 311 3.2 6.4 0.05 0.38 0.20 94 1010.5
20260506161741 8 325 3.2 6.4 0.05 0.38 0.20 94 1010.5
20260506161240 8 268 3.2 6.4 0.05 0.38 0.20 94 1010.6
20260506160740 8 312 3.2 4.8 0.05 0.38 0.20 94 1010.5
20260506160240 8 284 1.6 4.8 0.05 0.38 0.20 94 1010.4
20260506155740 8 284 1.6 4.8 0.05 0.38 0.20 94 1010.3
20260506155237 8 284 3.2 4.8 0.05 0.38 0.20 94 1010.4
20260506154737 8 317 3.2 4.8 0.03 0.36 0.18 94 1010.4
20260506153237 8 349 3.2 6.4 0.00 0.33 0.15 94 1010.4
20260506152736 8 307 3.2 6.4 0.00 0.33 0.15 94 1010.5
20260506152237 8 321 3.2 8.0 0.00 0.33 0.15 94 1010.4
20260506151737 8 320 3.2 8.0 0.00 0.33 0.15 94 1010.5
20260506151236 8 319 1.6 4.8 0.00 0.33 0.15 94 1010.6
20260506150234 8 279 1.6 8.0 0.00 0.33 0.15 94 1010.5
20260506145733 8 272 1.6 6.4 0.00 0.33 0.15 94 1010.7
20260506145230 9 300 1.6 6.4 0.00 0.33 0.15 94 1010.7
20260506144729 9 338 0.0 3.2 0.00 0.33 0.15 94 1011.0
20260506144229 9 338 1.6 3.2 0.00 0.33 0.15 94 1010.9
20260506143729 9 0 1.6 4.8 0.00 0.33 0.15 94 1010.9
20260506143231 9 0 1.6 4.8 0.03 0.33 0.15 94 1010.9
20260506142730 8 350 1.6 4.8 0.03 0.33 0.15 94 1011.1
20260506141229 9 350 1.6 3.2 0.05 0.33 0.15 94 1011.0
20260506140728 9 349 1.6 3.2 0.05 0.33 0.15 94 1011.0
20260506140228 9 355 1.6 3.2 0.05 0.33 0.15 94 1011.0
20260506135728 9 355 1.6 4.8 0.05 0.33 0.15 94 1011.0
20260506135228 9 5 3.2 4.8 0.05 0.33 0.15 94 1011.0
20260506134728 9 304 3.2 6.4 0.05 0.33 0.15 94 1011.4
20260506134227 9 336 1.6 6.4 0.05 0.33 0.15 94 1011.0
20260506133728 9 345 1.6 4.8 0.05 0.33 0.15 94 1011.0
20260506133228 9 338 1.6 8.0 0.03 0.30 0.15 94 1011.1
20260506131728 9 338 3.2 9.7 0.00 0.28 0.10 94 1011.6
20260506131228 9 36 1.6 4.8 0.00 0.28 0.10 94 1011.5
20260506130728 9 37 0.0 4.8 0.00 0.28 0.10 94 1011.3
20260506130228 10 345 1.6 3.2 0.00 0.28 0.10 94 1011.5
20260506125228 10 345 1.6 3.2 0.00 0.28 0.10 94 1011.9
20260506124727 10 345 0.0 3.2 0.00 0.28 0.10 94 1011.6
20260506123728 10 345 0.0 3.2 0.00 0.28 0.10 94 1011.6
20260506123229 10 345 0.0 3.2 0.00 0.28 0.10 94 1011.7
20260506122728 10 345 0.0 3.2 0.00 0.28 0.10 94 1011.9
20260506122229 10 345 1.6 4.8 0.00 0.28 0.10 94 1011.6
20260506121728 10 345 1.6 4.8 0.00 0.28 0.10 94 1011.6
20260506121228 10 319 1.6 4.8 0.00 0.28 0.10 94 1011.8
20260506120727 10 348 1.6 4.8 0.00 0.28 0.10 94 1012.1
20260506120227 10 337 3.2 6.4 0.00 0.28 0.10 94 1012.2
20260506115728 10 38 3.2 6.4 0.00 0.28 0.10 94 1012.0
20260506114728 10 351 1.6 3.2 0.00 0.28 0.10 94 1011.7
20260506114229 10 0 1.6 3.2 0.00 0.28 0.10 94 1011.7
20260506113728 10 0 1.6 3.2 0.00 0.28 0.10 94 1011.6
20260506113227 10 0 1.6 6.4 0.00 0.28 0.10 94 1011.6
20260506112728 10 0 1.6 6.4 0.00 0.28 0.10 94 1011.6
20260506110723 10 5 0.0 3.2 0.00 0.28 0.10 94 1011.7
20260506110223 10 5 0.0 3.2 0.00 0.28 0.10 95 1011.5
20260506104721 10 5 1.6 3.2 0.00 0.28 0.10 94 1011.6
20260506104223 10 5 1.6 3.2 0.00 0.28 0.10 94 1011.6
20260506103222 10 5 0.0 3.2 0.00 0.28 0.10 94 1011.7
20260506102721 10 5 1.6 4.8 0.00 0.28 0.10 94 1011.5
20260506102222 10 5 1.6 4.8 0.00 0.28 0.10 94 1011.6
20260506101722 10 331 1.6 3.2 0.00 0.28 0.10 94 1011.8
20260506101222 10 331 1.6 4.8 0.00 0.28 0.10 94 1011.9
20260506100721 10 338 1.6 4.8 0.00 0.28 0.10 94 1011.8
20260506100221 11 337 1.6 4.8 0.00 0.28 0.10 94 1011.9
20260506095722 11 57 1.6 8.0 0.00 0.28 0.10 94 1011.6
20260506095220 11 61 1.6 8.0 0.00 0.28 0.10 95 1011.6
20260506094721 11 355 1.6 4.8 0.00 0.28 0.10 95 1012.0
20260506094221 11 355 1.6 4.8 0.00 0.28 0.10 94 1011.9
20260506093721 11 15 1.6 4.8 0.00 0.28 0.10 95 1011.8
20260506092721 11 5 1.6 3.2 0.00 0.28 0.10 95 1011.8
20260506091221 11 5 1.6 4.8 0.00 0.28 0.10 94 1011.7
20260506090721 11 5 1.6 6.4 0.00 0.28 0.10 94 1011.5
20260506090219 11 63 1.6 6.4 0.00 0.28 0.10 94 1011.7
20260506085719 11 311 1.6 3.2 0.00 0.28 0.10 94 1011.9
20260506085219 11 311 1.6 3.2 0.00 0.28 0.10 95 1011.7
20260506084721 11 311 0.0 3.2 0.00 0.28 0.10 94 1012.3
20260506084220 11 311 0.0 1.6 0.00 0.28 0.10 94 1011.9
20260506083719 11 311 0.0 1.6 0.00 0.28 0.10 94 1011.6
20260506083219 11 311 0.0 3.2 0.00 0.28 0.10 94 1011.9
20260506082719 11 311 1.6 3.2 0.00 0.28 0.10 94 1012.2
20260506082218 11 311 1.6 3.2 0.00 0.28 0.10 94 1012.1
20260506081718 12 305 1.6 6.4 0.00 0.28 0.10 94 1012.3
20260506081218 11 311 1.6 6.4 0.00 0.28 0.10 94 1012.5
20260506080717 11 107 0.0 3.2 0.00 0.28 0.10 94 1011.9
20260506073216 12 107 1.6 3.2 0.00 0.28 0.10 94 1011.3
20260506072715 12 107 0.0 3.2 0.00 0.28 0.10 94 1011.7
20260506072215 12 107 0.0 1.6 0.00 0.28 0.10 94 1011.5
20260506071715 12 107 0.0 0.0 0.00 0.28 0.10 94 1011.4
20260506071215 12 107 0.0 1.6 0.00 0.28 0.10 94 1011.4
20260506070715 12 107 1.6 3.2 0.00 0.28 0.10 94 1011.6
20260506070215 12 107 1.6 3.2 0.00 0.28 0.10 94 1011.7
20260506061214 12 107 0.0 1.6 0.00 0.28 0.10 93 1011.7
20260506050712 12 108 1.6 4.8 0.10 0.28 0.10 92 1012.2
20260506050211 12 108 1.6 4.8 0.10 0.28 0.10 92 1012.1
20260506043711 12 46 1.6 3.2 0.10 0.23 0.05 90 1012.0
20260506043210 12 46 1.6 3.2 0.10 0.23 0.05 90 1011.4
20260506042710 12 46 1.6 3.2 0.10 0.23 0.05 90 1011.9
20260506042208 12 46 1.6 4.8 0.10 0.20 0.03 90 1011.8
20260506041208 12 31 3.2 14.5 0.08 0.18 0.00 89 1012.1
20260506040209 13 5 1.6 6.4 0.08 0.18 0.00 89 1012.3
20260506035707 13 278 0.0 3.2 0.05 0.15 0.15 89 1012.1
20260506035207 13 278 1.6 4.8 0.05 0.15 0.15 89 1011.6
20260506034705 13 278 3.2 12.9 0.05 0.15 0.15 90 1011.4
20260506034205 13 246 4.8 12.9 0.03 0.13 0.13 90 1011.3
20260506033705 13 338 6.4 14.5 0.03 0.13 0.13 90 1011.1
20260506033205 14 262 4.8 17.7 0.03 0.13 0.13 91 1010.7
20260506032706 14 331 3.2 17.7 0.03 0.13 0.13 92 1010.6
20260506032206 14 325 1.6 8.0 0.00 0.10 0.10 92 1010.6
20260506031705 14 9 1.6 8.0 0.00 0.10 0.10 92 1010.1
20260506031206 14 342 1.6 4.8 0.00 0.10 0.10 92 1010.2
20260506030705 14 342 1.6 4.8 0.00 0.10 0.10 91 1010.1
20260506030206 14 9 1.6 6.4 0.00 0.10 0.10 91 1010.1
20260506025706 14 5 1.6 6.4 0.00 0.10 0.10 91 1010.2
20260506025205 14 5 0.0 4.8 0.00 0.10 0.10 91 1010.2
20260506024206 14 9 0.0 4.8 0.00 0.10 0.10 91 1010.1
20260506023706 14 9 0.0 4.8 0.00 0.10 0.10 91 1010.1
20260506023206 14 15 0.0 0.0 0.00 0.10 0.10 90 1010.1
20260506022705 14 15 0.0 0.0 0.00 0.10 0.10 90 1010.4
20260506022208 14 15 0.0 3.2 0.00 0.10 0.10 90 1010.0
20260506021706 14 15 3.2 6.4 0.00 0.10 0.10 90 1010.2
20260506021206 14 15 3.2 6.4 0.00 0.10 0.10 90 1010.3
20260506020707 15 318 1.6 6.4 0.00 0.10 0.10 90 1010.3
20260506020206 15 355 0.0 4.8 0.00 0.10 0.10 90 1010.1
20260506015706 15 355 0.0 0.0 0.00 0.10 0.10 90 1010.1
20260506015206 15 355 0.0 1.6 0.00 0.10 0.10 89 1010.0
20260506014706 15 355 0.0 1.6 0.00 0.10 0.10 89 1010.0
20260506014206 15 355 0.0 3.2 0.00 0.10 0.10 89 1009.6
20260506013707 15 355 0.0 3.2 0.00 0.10 0.10 89 1009.5
20260506013206 15 355 0.0 1.6 0.00 0.10 0.10 89 1009.4
20260506012707 15 355 0.0 0.0 0.00 0.10 0.10 89 1009.4
20260506012206 15 355 0.0 3.2 0.00 0.10 0.10 89 1009.5
20260506011706 15 355 1.6 4.8 0.00 0.10 0.10 89 1009.3
20260506011205 15 355 1.6 4.8 0.00 0.10 0.10 89 1009.4
20260506010706 15 355 1.6 3.2 0.00 0.10 0.10 88 1009.5
20260506010205 15 355 1.6 4.8 0.00 0.10 0.10 88 1009.4
20260506005705 15 355 3.2 6.4 0.00 0.10 0.10 88 1009.4
20260506005205 15 355 3.2 6.4 0.00 0.10 0.10 87 1009.3
20260506004204 16 355 1.6 4.8 0.00 0.10 0.10 85 1009.3
20260506003705 16 355 3.2 6.4 0.00 0.10 0.10 84 1009.2
20260506003201 16 355 3.2 6.4 0.00 0.10 0.10 83 1009.1
20260506002700 16 106 1.6 4.8 0.00 0.10 0.10 82 1009.1
20260506002159 17 107 1.6 3.2 0.00 0.10 0.10 80 1009.2
20260506001659 17 108 0.0 4.8 0.00 0.10 0.10 78 1009.1
20260506001159 17 108 1.6 4.8 0.00 0.10 0.10 76 1009.0
20260506000700 17 84 1.6 6.4 0.00 0.10 0.10 75 1009.0
20260506000158 17 84 1.6 6.4 0.00 0.10 0.10 76 1009.1
20260505235657 17 239 1.6 3.2 0.00 0.10 0.10 77 1009.2
20260505235158 17 240 1.6 8.0 0.00 0.10 0.10 77 1009.1
20260505234657 17 194 3.2 8.0 0.00 0.10 0.10 78 1009.1
20260505233657 17 342 0.0 3.2 0.00 0.10 0.10 82 1009.1
20260505233157 17 9 1.6 4.8 0.00 0.10 0.10 83 1008.8
20260505232657 17 9 3.2 8.0 0.00 0.10 0.10 82 1008.7
20260505232158 17 9 3.2 8.0 0.00 0.10 0.10 82 1008.6
20260505231658 17 5 3.2 8.0 0.00 0.10 0.10 78 1008.5
20260505231155 17 166 1.6 8.0 0.00 0.10 0.10 74 1008.4
20260505230655 17 62 3.2 9.7 0.00 0.10 0.10 74 1008.4
20260505230155 17 163 3.2 9.7 0.00 0.10 0.10 78 1008.4
20260505225155 17 167 3.2 8.0 0.00 0.10 0.10 84 1008.2
20260505224655 17 167 3.2 8.0 0.00 0.10 0.10 85 1008.4
20260505224155 17 54 3.2 8.0 0.00 0.10 0.10 84 1008.4
20260505223655 17 53 3.2 8.0 0.00 0.10 0.10 84 1008.3
20260505223155 17 5 3.2 6.4 0.00 0.10 0.10 83 1008.2
20260505222153 17 169 3.2 8.0 0.00 0.10 0.10 82 1008.2
20260505221655 17 165 3.2 8.0 0.00 0.10 0.10 83 1008.2
20260505221153 17 110 0.0 4.8 0.00 0.10 0.10 83 1008.4
20260505220653 17 79 0.0 3.2 0.00 0.10 0.10 83 1008.4
20260505220154 17 79 1.6 4.8 0.00 0.10 0.10 83 1008.6
20260505215653 17 79 1.6 6.4 0.00 0.10 0.10 83 1008.5
20260505215152 17 5 3.2 6.4 0.00 0.10 0.10 84 1008.1
20260505214152 17 343 3.2 9.7 0.00 0.10 0.10 84 1007.8
20260505213651 17 42 3.2 9.7 0.00 0.10 0.10 83 1007.8
20260505213152 17 343 4.8 12.9 0.00 0.10 0.10 82 1007.9
20260505212650 18 49 4.8 12.9 0.00 0.10 0.10 81 1007.7
20260505212151 18 355 4.8 12.9 0.00 0.10 0.10 78 1007.8
20260505211651 19 342 3.2 11.3 0.00 0.10 0.10 72 1007.8
20260505211152 18 193 4.8 14.5 0.00 0.10 0.10 71 1007.9
20260505210650 18 136 4.8 14.5 0.00 0.10 0.10 72 1007.9
20260505205651 18 148 3.2 9.7 0.03 0.10 0.10 74 1007.9
20260505204649 18 215 4.8 14.5 0.08 0.10 0.10 75 1007.9
20260505204149 18 214 4.8 14.5 0.08 0.10 0.10 75 1007.9
20260505203648 18 200 4.8 11.3 0.08 0.10 0.10 75 1007.4
20260505202650 18 153 4.8 11.3 0.10 0.10 0.10 77 1007.1
20260505202149 18 148 4.8 12.9 0.10 0.10 0.10 78 1007.2
20260505201650 18 166 4.8 12.9 0.10 0.10 0.10 78 1007.2
20260505201147 18 196 4.8 8.0 0.10 0.10 0.10 79 1007.1
20260505200646 18 127 4.8 9.7 0.10 0.10 0.10 78 1007.1
20260505195645 19 233 11.3 41.8 0.08 0.08 0.08 72 1007.3
20260505195145 21 271 8.0 41.8 0.03 0.03 0.03 65 1007.7
20260505194143 21 178 4.8 22.5 0.03 0.03 0.03 60 1005.5
20260505192643 25 236 11.3 38.6 0.00 0.00 0.00 46 1005.0
20260505192143 26 246 9.7 38.6 0.00 0.00 0.00 39 1004.9
20260505191141 26 139 11.3 32.2 0.00 0.00 0.00 37 1004.2
20260505190641 26 263 12.9 32.2 0.00 0.00 0.00 38 1004.5
20260505190140 26 202 11.3 25.7 0.00 0.00 0.00 37 1004.1
20260505185640 26 167 9.7 30.6 0.00 0.00 0.00 37 1004.1
20260505185141 26 178 8.0 30.6 0.00 0.00 0.00 37 1004.2
20260505184641 26 297 8.0 20.9 0.00 0.00 0.00 37 1004.2
20260505184141 26 182 9.7 33.8 0.00 0.00 0.00 37 1004.3
20260505183640 26 80 9.7 33.8 0.00 0.00 0.00 37 1004.3
20260505183140 26 150 8.0 27.4 0.00 0.00 0.00 38 1004.4
20260505182641 26 68 9.7 27.4 0.00 0.00 0.00 38 1004.4
20260505182142 26 208 11.3 27.4 0.00 0.00 0.00 39 1004.6
20260505181640 26 206 11.3 27.4 0.00 0.00 0.00 37 1004.5
20260505180642 26 204 12.9 29.0 0.00 0.00 0.00 37 1005.0